When you browse on this site, cookies collect data to enhance your experience and personalize the content and advertising you see.
Visit our Privacy Policy to learn more. By continuing to use the site, you agree to this use of cookies and data.
  • In Spain
  • List of Countries
  • For 7 days
  • Water Temperature
  • Satellite Maps
  • Weather Map
  • Weather Widgets
  • user-avatar
    Login

    Hourly Weather Batina

    Today, 24 March, Sunday

    Time Temperature Precipitation Wind Pressure Humidity
    00:00 +7°C° 0 mm 1 mps 673 mmHg 93%
    01:00 +7°C° 0 mm 1 mps 673 mmHg 94%
    02:00 +6°C° 0 mm 1 mps 672 mmHg 94%
    03:00 +5°C° 0 mm 0 mps 672 mmHg 94%
    04:00 +5°C° 0 mm 0 mps 672 mmHg 93%
    05:00 +5°C° 0 mm 0 mps 672 mmHg 93%
    06:00 +5°C° 0 mm 0 mps 672 mmHg 92%
    07:00 +8°C° 0 mm 1 mps 673 mmHg 82%
    08:00 +10°C° 0 mm 1 mps 674 mmHg 72%
    09:00 +12°C° 0 mm 1 mps 675 mmHg 62%
    10:00 +12°C° 0 mm 1 mps 675 mmHg 59%
    11:00 +13°C° 0 mm 1 mps 675 mmHg 55%
    12:00 +14°C° 0 mm 1 mps 675 mmHg 51%
    13:00 +14°C° 0.1 mm 2 mps 675 mmHg 52%
    14:00 +13°C° 0.1 mm 3 mps 674 mmHg 53%
    15:00 +12°C° 0.1 mm 4 mps 674 mmHg 54%
    16:00 +12°C° 0 mm 3 mps 673 mmHg 55%
    17:00 +11°C° 0 mm 3 mps 673 mmHg 57%
    18:00 +12°C° 0 mm 2 mps 673 mmHg 59%
    19:00 +10°C° 0 mm 2 mps 673 mmHg 61%
    20:00 +9°C° 0 mm 2 mps 673 mmHg 64%
    21:00 +9°C° 0 mm 2 mps 673 mmHg 66%
    22:00 +8°C° 0 mm 2 mps 673 mmHg 68%
    23:00 +8°C° 0 mm 2 mps 673 mmHg 69%

    Tomorrow, 25 March, Monday

    Time Temperature Precipitation Wind Pressure Humidity
    00:00 +8°C° 0 mm 2 mps 673 mmHg 71%
    01:00 +8°C° 0 mm 2 mps 672 mmHg 71%
    02:00 +7°C° 0 mm 2 mps 672 mmHg 72%
    03:00 +7°C° 0 mm 2 mps 672 mmHg 72%
    04:00 +7°C° 0 mm 2 mps 672 mmHg 72%
    05:00 +7°C° 0 mm 2 mps 672 mmHg 71%
    06:00 +7°C° 0 mm 2 mps 671 mmHg 71%
    07:00 +9°C° 0 mm 2 mps 672 mmHg 63%
    08:00 +10°C° 0 mm 2 mps 673 mmHg 56%
    09:00 +12°C° 0 mm 3 mps 673 mmHg 49%
    10:00 +13°C° 0 mm 3 mps 673 mmHg 46%
    11:00 +14°C° 0 mm 3 mps 673 mmHg 43%
    12:00 +16°C° 0 mm 3 mps 673 mmHg 40%
    13:00 +15°C° 0 mm 4 mps 672 mmHg 40%
    14:00 +15°C° 0 mm 4 mps 672 mmHg 40%
    15:00 +16°C° 0 mm 5 mps 671 mmHg 39%
    16:00 +15°C° 0 mm 4 mps 671 mmHg 43%
    17:00 +14°C° 0 mm 4 mps 671 mmHg 46%
    18:00 +13°C° 0 mm 3 mps 670 mmHg 50%
    19:00 +13°C° 0 mm 2 mps 670 mmHg 54%
    20:00 +13°C° 0 mm 2 mps 671 mmHg 58%
    21:00 +12°C° 0 mm 1 mps 671 mmHg 62%
    22:00 +11°C° 0 mm 1 mps 670 mmHg 63%
    23:00 +11°C° 0 mm 1 mps 670 mmHg 65%

    Day after tomorrow, 26 March, Tuesday

    Time Temperature Precipitation Wind Pressure Humidity
    00:00 +10°C° 0 mm 1 mps 670 mmHg 66%
    01:00 +10°C° 0 mm 1 mps 669 mmHg 66%
    02:00 +9°C° 0 mm 2 mps 669 mmHg 66%
    03:00 +9°C° 0 mm 2 mps 669 mmHg 66%
    04:00 +9°C° 0.1 mm 2 mps 669 mmHg 68%
    05:00 +10°C° 0.1 mm 1 mps 669 mmHg 70%
    06:00 +10°C° 0.1 mm 1 mps 669 mmHg 72%
    07:00 +10°C° 0 mm 2 mps 670 mmHg 66%
    08:00 +13°C° 0 mm 2 mps 670 mmHg 60%
    09:00 +14°C° 0 mm 2 mps 671 mmHg 54%
    10:00 +14°C° 0 mm 3 mps 671 mmHg 52%
    11:00 +15°C° 0 mm 4 mps 671 mmHg 50%
    12:00 +16°C° 0 mm 5 mps 671 mmHg 48%
    13:00 +15°C° 0.3 mm 4 mps 671 mmHg 54%
    14:00 +13°C° 0.3 mm 4 mps 670 mmHg 60%
    15:00 +12°C° 0.3 mm 4 mps 670 mmHg 66%
    16:00 +11°C° 0.1 mm 4 mps 670 mmHg 69%
    17:00 +10°C° 0.1 mm 3 mps 670 mmHg 72%
    18:00 +9°C° 0.1 mm 3 mps 670 mmHg 75%
    19:00 +9°C° 0 mm 3 mps 670 mmHg 76%
    20:00 +8°C° 0 mm 3 mps 671 mmHg 77%
    21:00 +7°C° 0 mm 3 mps 671 mmHg 77%
    22:00 +5°C° 0 mm 3 mps 671 mmHg 80%
    23:00 +4°C° 0 mm 3 mps 671 mmHg 82%

    27 March, Wednesday

    Time Temperature Precipitation Wind Pressure Humidity
    00:00 +4°C° 0 mm 3 mps 670 mmHg 84%
    01:00 +3°C° 0 mm 3 mps 670 mmHg 85%
    02:00 +3°C° 0 mm 3 mps 670 mmHg 86%
    03:00 +3°C° 0 mm 2 mps 669 mmHg 87%
    04:00 +2°C° 0 mm 3 mps 670 mmHg 85%
    05:00 +2°C° 0 mm 3 mps 670 mmHg 83%
    06:00 +2°C° 0 mm 3 mps 670 mmHg 82%
    07:00 +3°C° 0 mm 3 mps 671 mmHg 76%
    08:00 +4°C° 0 mm 3 mps 671 mmHg 69%
    09:00 +7°C° 0 mm 3 mps 672 mmHg 63%
    10:00 +7°C° 0 mm 4 mps 672 mmHg 58%
    11:00 +8°C° 0 mm 4 mps 672 mmHg 52%
    12:00 +10°C° 0 mm 4 mps 672 mmHg 47%
    13:00 +9°C° 0 mm 5 mps 672 mmHg 49%
    14:00 +9°C° 0 mm 6 mps 672 mmHg 50%
    15:00 +9°C° 0 mm 7 mps 671 mmHg 52%
    16:00 +8°C° 0 mm 6 mps 671 mmHg 59%
    17:00 +7°C° 0 mm 5 mps 671 mmHg 66%
    18:00 +6°C° 0 mm 5 mps 671 mmHg 73%
    19:00 +6°C° 0 mm 4 mps 672 mmHg 76%
    20:00 +5°C° 0 mm 4 mps 672 mmHg 78%
    21:00 +5°C° 0 mm 3 mps 673 mmHg 81%
    22:00 +4°C° 0 mm 3 mps 672 mmHg 84%
    23:00 +4°C° 0 mm 3 mps 672 mmHg 87%

    28 March, Thursday

    Time Temperature Precipitation Wind Pressure Humidity
    00:00 +4°C° 0 mm 2 mps 672 mmHg 91%
    01:00 +4°C° 0 mm 2 mps 672 mmHg 91%
    02:00 +3°C° 0 mm 2 mps 671 mmHg 92%
    03:00 +3°C° 0 mm 2 mps 671 mmHg 93%
    04:00 +3°C° 0 mm 2 mps 671 mmHg 93%
    05:00 +3°C° 0 mm 2 mps 671 mmHg 92%
    06:00 +3°C° 0 mm 2 mps 672 mmHg 92%
    07:00 +5°C° 0 mm 2 mps 672 mmHg 81%
    08:00 +6°C° 0 mm 2 mps 673 mmHg 70%
    09:00 +8°C° 0 mm 3 mps 674 mmHg 59%
    10:00 +9°C° 0 mm 2 mps 674 mmHg 54%
    11:00 +12°C° 0 mm 2 mps 674 mmHg 49%
    12:00 +13°C° 0 mm 2 mps 674 mmHg 44%
    13:00 +13°C° 0 mm 2 mps 673 mmHg 43%
    14:00 +14°C° 0 mm 2 mps 673 mmHg 42%
    15:00 +14°C° 0 mm 2 mps 673 mmHg 41%
    16:00 +13°C° 0 mm 2 mps 673 mmHg 45%
    17:00 +11°C° 0 mm 3 mps 673 mmHg 49%
    18:00 +11°C° 0 mm 3 mps 672 mmHg 53%
    19:00 +10°C° 0 mm 2 mps 673 mmHg 57%
    20:00 +9°C° 0 mm 2 mps 673 mmHg 62%
    21:00 +9°C° 0 mm 1 mps 673 mmHg 66%
    22:00 +9°C° 0 mm 1 mps 673 mmHg 68%
    23:00 +8°C° 0 mm 1 mps 672 mmHg 70%

    29 March, Friday

    Time Temperature Precipitation Wind Pressure Humidity
    00:00 +8°C° 0 mm 1 mps 672 mmHg 71%
    01:00 +8°C° 0 mm 1 mps 672 mmHg 71%
    02:00 +7°C° 0 mm 1 mps 672 mmHg 71%
    03:00 +7°C° 0 mm 1 mps 672 mmHg 70%
    04:00 +6°C° 0 mm 2 mps 672 mmHg 70%
    05:00 +6°C° 0 mm 2 mps 672 mmHg 69%
    06:00 +6°C° 0 mm 2 mps 672 mmHg 68%
    07:00 +7°C° 0 mm 3 mps 673 mmHg 65%
    08:00 +9°C° 0 mm 3 mps 673 mmHg 62%
    09:00 +10°C° 0 mm 4 mps 674 mmHg 58%
    10:00 +11°C° 0 mm 4 mps 674 mmHg 56%
    11:00 +12°C° 0 mm 4 mps 674 mmHg 55%
    12:00 +13°C° 0 mm 4 mps 674 mmHg 53%
    13:00 +12°C° 0.3 mm 4 mps 673 mmHg 57%
    14:00 +12°C° 0.3 mm 4 mps 673 mmHg 61%
    15:00 +11°C° 0.3 mm 4 mps 672 mmHg 64%
    16:00 +11°C° 0.2 mm 3 mps 672 mmHg 66%
    17:00 +10°C° 0.2 mm 2 mps 672 mmHg 67%
    18:00 +11°C° 0.2 mm 1 mps 672 mmHg 69%
    19:00 +11°C° 0 mm 1 mps 673 mmHg 70%
    20:00 +11°C° 0 mm 1 mps 673 mmHg 71%
    21:00 +10°C° 0 mm 1 mps 673 mmHg 73%
    22:00 +10°C° 0.1 mm 1 mps 673 mmHg 73%
    23:00 +10°C° 0.1 mm 1 mps 673 mmHg 74%
    Show more